Vorticity
9 10 10 8 8 9 9 9 9 9 8 8 8 8 8 8 8 7 6 3 7 9
10 10 10 11 11 9 9 9 9 8 8 8 8 8 8 8 7 5 3 6 8 8
12 11 10 11 9 10 9 9 9 8 8 8 8 8 8 7 5 4 6 8 8 9
10 11 11 12 12 11 10 10 10 9 8 8 9 9 6 4 4 6 8 7 9 10
10 10 10 11 11 11 11 9 8 8 8 7 5 4 4 6 3 10 8 9 10 10
9 9 10 11 10 10 10 10 9 9 7 6 7 6 1 9 12 8 9 10 9 9
7 9 10 9 9 9 9 9 7 4 6 12 9 6 19 12 8 9 10 10 10 9
9 7 9 9 6 5 7 10 13 15 12 8 12 15 11 9 11 11 9 9 8 9
11 9 11 16 16 15 14 14 10 13 8 14 17 16 7 9 10 9 9 8 8 9
13 16 17 17 17 14 11 10 9 13 17 12 10 6 8 8 8 7 7 7 9 9
13 13 14 14 11 9 9 13 20 16 15 11 6 9 9 7 7 7 7 8 9 8
14 15 12 10 9 11 18 16 13 9 8 6 9 10 7 6 7 8 9 10 9 9
13 9 9 12 17 17 16 16 10 4 8 10 9 8 7 8 10 10 9 9 10 9
9 10 14 15 18 15 7 5 8 9 9 10 8 8 9 10 9 7 9 9 10 10
Height
3008 3012 3015 3017 3020 3022 3024 3026 3029 3030 3032 3033 3034 3035 3035 3035 3035 3033 3032 3030 3028 3026
2999 3003 3006 3009 3012 3013 3015 3017 3020 3022 3023 3024 3025 3026 3027 3026 3026 3025 3023 3021 3019 3016
2992 2995 2998 3000 3002 3004 3007 3009 3012 3013 3015 3016 3016 3017 3017 3016 3016 3015 3014 3012 3010 3007
2985 2988 2990 2993 2995 2997 2999 3000 3002 3004 3006 3007 3007 3008 3008 3008 3007 3005 3004 3003 3002 2999
2977 2980 2982 2984 2986 2988 2991 2993 2995 2996 2997 2998 2999 3000 3000 2999 2998 2996 2996 2995 2993 2988
2968 2970 2973 2975 2977 2980 2982 2984 2985 2988 2990 2990 2991 2992 2992 2990 2988 2989 2988 2985 2982 2978
2959 2960 2962 2963 2966 2969 2971 2973 2975 2977 2979 2982 2983 2982 2981 2980 2981 2980 2978 2976 2973 2970
2950 2952 2954 2956 2958 2961 2965 2968 2971 2972 2972 2972 2973 2972 2971 2972 2973 2972 2970 2968 2965 2962
2945 2947 2950 2953 2956 2959 2961 2962 2962 2963 2964 2964 2964 2964 2965 2965 2965 2964 2962 2960 2957 2954
2941 2943 2945 2948 2950 2951 2953 2955 2956 2957 2956 2955 2956 2957 2958 2957 2957 2955 2953 2951 2950 2948
2935 2936 2938 2941 2942 2944 2946 2948 2949 2949 2949 2948 2950 2951 2951 2950 2949 2948 2946 2944 2941 2936
2929 2931 2933 2936 2938 2939 2940 2940 2941 2940 2941 2942 2944 2945 2944 2943 2942 2941 2939 2937 2934 2928
2925 2927 2930 2931 2932 2933 2934 2935 2935 2936 2937 2938 2938 2939 2939 2937 2937 2935 2933 2931 2927 2922
2921 2923 2925 2926 2927 2927 2929 2931 2932 2933 2933 2933 2933 2933 2932 2931 2929 2926 2925 2922 2919 2916